Time,TemperatureF,DewpointF,PressureIn,WindDirection,WindDirectionDegrees,WindSpeedMPH,WindSpeedGustMPH,Humidity,HourlyPrecipIn,Conditions,Clouds,dailyrainin,SoftwareType,DateUTC
2013-01-04 00:05:00,32.1,26.3,30.34,SSE,157,4.0,5.0,79,0.00,,,0.00,Wunderground v.1.15,2013-01-04 07:05:00,
2013-01-04 00:15:00,31.9,26.4,30.34,SSE,148,5.0,5.0,80,0.00,,,0.00,Wunderground v.1.15,2013-01-04 07:15:00,
2013-01-04 00:20:00,31.9,26.4,30.35,SSE,155,5.0,7.0,80,0.00,,,0.00,Wunderground v.1.15,2013-01-04 07:20:00,
2013-01-04 00:25:00,31.8,26.3,30.34,SSE,156,5.0,7.0,80,0.00,,,0.00,Wunderground v.1.15,2013-01-04 07:25:00,
2013-01-04 00:30:00,31.6,26.1,30.34,SSE,149,5.0,5.0,80,0.00,,,0.00,Wunderground v.1.15,2013-01-04 07:30:00,
2013-01-04 00:40:00,31.3,26.1,30.34,SSE,152,5.0,5.0,81,0.00,,,0.00,Wunderground v.1.15,2013-01-04 07:40:00,
2013-01-04 00:45:00,31.3,26.4,30.35,SSE,152,5.0,5.0,82,0.00,,,0.00,Wunderground v.1.15,2013-01-04 07:45:00,
2013-01-04 00:50:00,31.2,26.3,30.34,SE,142,5.0,5.0,82,0.00,,,0.00,Wunderground v.1.15,2013-01-04 07:50:00,
2013-01-04 00:55:00,31.0,26.1,30.34,SE,142,5.0,5.0,82,0.00,,,0.00,Wunderground v.1.15,2013-01-04 07:55:00,
2013-01-04 01:00:00,30.9,26.1,30.34,SE,126,5.0,5.0,82,0.00,,,0.00,Wunderground v.1.15,2013-01-04 08:00:00,
2013-01-04 01:05:00,30.9,26.3,30.35,SE,127,5.0,5.0,83,0.00,,,0.00,Wunderground v.1.15,2013-01-04 08:05:00,
2013-01-04 01:15:00,30.7,26.1,30.36,SE,128,4.0,6.0,83,0.00,,,0.00,Wunderground v.1.15,2013-01-04 08:15:00,
2013-01-04 01:20:00,30.6,26.1,30.36,SE,137,4.0,6.0,83,0.00,,,0.00,Wunderground v.1.15,2013-01-04 08:20:00,
2013-01-04 01:25:00,30.4,25.9,30.36,SE,144,4.0,6.0,83,0.00,,,0.00,Wunderground v.1.15,2013-01-04 08:25:00,
2013-01-04 01:30:00,30.3,26.0,30.36,SE,144,3.0,4.0,84,0.00,,,0.00,Wunderground v.1.15,2013-01-04 08:30:00,
2013-01-04 01:35:00,30.1,26.1,30.36,SE,146,3.0,4.0,85,0.00,,,0.00,Wunderground v.1.15,2013-01-04 08:35:00,
2013-01-04 01:45:00,30.0,26.3,30.36,SE,146,3.0,6.0,86,0.00,,,0.00,Wunderground v.1.15,2013-01-04 08:45:00,
2013-01-04 01:50:00,30.0,26.0,30.36,SSE,147,4.0,5.0,85,0.00,,,0.00,Wunderground v.1.15,2013-01-04 08:50:00,
2013-01-04 01:55:00,30.0,26.3,30.36,SE,146,4.0,7.0,86,0.00,,,0.00,Wunderground v.1.15,2013-01-04 08:55:00,
2013-01-04 02:00:00,29.8,26.1,30.36,SE,146,5.0,5.0,86,0.00,,,0.00,Wunderground v.1.15,2013-01-04 09:00:00,
2013-01-04 06:10:00,29.5,25.0,30.39,SE,130,2.0,4.0,83,0.00,,,0.00,Wunderground v.1.15,2013-01-04 13:10:00,
2013-01-04 06:15:00,29.5,25.0,30.39,SE,130,3.0,4.0,83,0.00,,,0.00,Wunderground v.1.15,2013-01-04 13:15:00,
2013-01-04 06:20:00,29.4,24.9,30.39,SE,130,4.0,4.0,83,0.00,,,0.00,Wunderground v.1.15,2013-01-04 13:20:00,
2013-01-04 06:25:00,29.4,24.9,30.39,SE,130,3.0,5.0,83,0.00,,,0.00,Wunderground v.1.15,2013-01-04 13:25:00,
2013-01-04 06:30:00,29.4,24.6,30.39,SE,131,4.0,4.0,82,0.00,,,0.00,Wunderground v.1.15,2013-01-04 13:30:00,
2013-01-04 06:40:00,29.4,24.6,30.39,SE,130,4.0,4.0,82,0.00,,,0.00,Wunderground v.1.15,2013-01-04 13:40:00,
2013-01-04 06:45:00,29.4,24.3,30.39,SE,130,3.0,4.0,81,0.00,,,0.00,Wunderground v.1.15,2013-01-04 13:45:00,
2013-01-04 06:50:00,29.4,24.3,30.39,SE,131,2.0,5.0,81,0.00,,,0.00,Wunderground v.1.15,2013-01-04 13:50:00,
2013-01-04 06:55:00,29.4,24.0,30.40,SE,131,2.0,5.0,80,0.00,,,0.00,Wunderground v.1.15,2013-01-04 13:55:00,
2013-01-04 07:00:00,29.4,24.0,30.40,SE,131,2.0,4.0,80,0.00,,,0.00,Wunderground v.1.15,2013-01-04 14:00:00,
2013-01-04 07:05:00,29.5,24.1,30.39,SE,131,2.0,4.0,80,0.00,,,0.00,Wunderground v.1.15,2013-01-04 14:05:00,
2013-01-04 07:15:00,29.7,24.3,30.40,SE,131,2.0,2.0,80,0.00,,,0.00,Wunderground v.1.15,2013-01-04 14:15:00,
2013-01-04 07:20:00,29.7,24.0,30.40,SE,131,3.0,3.0,79,0.00,,,0.00,Wunderground v.1.15,2013-01-04 14:20:00,
2013-01-04 07:25:00,29.5,23.5,30.40,SE,131,3.0,4.0,78,0.00,,,0.00,Wunderground v.1.15,2013-01-04 14:25:00,
2013-01-04 07:30:00,29.7,23.7,30.41,SE,131,4.0,4.0,78,0.00,,,0.00,Wunderground v.1.15,2013-01-04 14:30:00,
2013-01-04 07:35:00,29.8,23.8,30.41,SE,131,4.0,4.0,78,0.00,,,0.00,Wunderground v.1.15,2013-01-04 14:35:00,
2013-01-04 07:45:00,30.1,23.8,30.42,SE,131,4.0,4.0,77,0.00,,,0.00,Wunderground v.1.15,2013-01-04 14:45:00,
2013-01-04 07:50:00,30.1,23.8,30.42,SE,131,3.0,3.0,77,0.00,,,0.00,Wunderground v.1.15,2013-01-04 14:50:00,
2013-01-04 07:55:00,30.3,24.0,30.42,SE,131,2.0,3.0,77,0.00,,,0.00,Wunderground v.1.15,2013-01-04 14:55:00,
2013-01-04 08:00:00,30.3,23.6,30.42,SE,131,2.0,5.0,76,0.00,,,0.00,Wunderground v.1.15,2013-01-04 15:00:00,
2013-01-04 08:05:00,30.3,23.3,30.42,SE,131,3.0,5.0,75,0.00,,,0.00,Wunderground v.1.15,2013-01-04 15:05:00,
2013-01-04 08:15:00,30.7,23.7,30.42,SE,131,3.0,4.0,75,0.00,,,0.00,Wunderground v.1.15,2013-01-04 15:15:00,
2013-01-04 08:20:00,31.0,24.0,30.42,SE,131,3.0,4.0,75,0.00,,,0.00,Wunderground v.1.15,2013-01-04 15:20:00,
2013-01-04 08:25:00,31.2,23.9,30.43,SE,131,4.0,4.0,74,0.00,,,0.00,Wunderground v.1.15,2013-01-04 15:25:00,
2013-01-04 08:30:00,31.6,24.6,30.43,SE,131,3.0,6.0,75,0.00,,,0.00,Wunderground v.1.15,2013-01-04 15:30:00,
2013-01-04 08:35:00,31.3,23.6,30.43,SE,130,4.0,6.0,73,0.00,,,0.00,Wunderground v.1.15,2013-01-04 15:35:00,
2013-01-04 08:40:00,31.9,24.2,30.43,SE,130,5.0,5.0,73,0.00,,,0.00,Wunderground v.1.15,2013-01-04 15:40:00,
2013-01-04 08:50:00,32.4,24.4,30.44,SE,130,4.0,4.0,72,0.00,,,0.00,Wunderground v.1.15,2013-01-04 15:50:00,
2013-01-04 08:55:00,32.2,24.5,30.44,SE,130,5.0,5.0,73,0.00,,,0.01,Wunderground v.1.15,2013-01-04 15:55:00,
2013-01-04 09:00:00,32.1,24.4,30.44,SE,130,5.0,5.0,73,0.00,,,0.01,Wunderground v.1.15,2013-01-04 16:00:00,
2013-01-04 09:05:00,32.2,24.5,30.44,SE,130,5.0,7.0,73,0.00,,,0.01,Wunderground v.1.15,2013-01-04 16:05:00,
2013-01-04 09:15:00,32.4,24.7,30.44,SE,131,6.0,6.0,73,0.00,,,0.01,Wunderground v.1.15,2013-01-04 16:15:00,
2013-01-04 09:25:00,32.7,24.7,30.44,SE,130,6.0,6.0,72,0.00,,,0.01,Wunderground v.1.15,2013-01-04 16:25:00,
2013-01-04 09:30:00,33.1,25.4,30.44,SE,130,5.0,6.0,73,0.00,,,0.01,Wunderground v.1.15,2013-01-04 16:30:00,
2013-01-04 09:35:00,32.9,25.2,30.45,SE,130,5.0,6.0,73,0.00,,,0.01,Wunderground v.1.15,2013-01-04 16:35:00,
2013-01-04 09:40:00,33.4,26.0,30.45,SE,130,4.0,5.0,74,0.00,,,0.01,Wunderground v.1.15,2013-01-04 16:40:00,
2013-01-04 09:45:00,34.0,26.6,30.45,SE,130,4.0,5.0,74,0.00,,,0.01,Wunderground v.1.15,2013-01-04 16:45:00,
2013-01-04 09:55:00,34.3,26.5,30.45,SE,130,4.0,5.0,73,0.00,,,0.01,Wunderground v.1.15,2013-01-04 16:55:00,
2013-01-04 10:00:00,34.6,26.8,30.45,SE,130,4.0,4.0,73,0.00,,,0.01,Wunderground v.1.15,2013-01-04 17:00:00,
2013-01-04 10:05:00,35.2,27.7,30.45,SE,130,3.0,4.0,74,0.00,,,0.01,Wunderground v.1.15,2013-01-04 17:05:00,
2013-01-04 10:15:00,36.0,27.8,30.45,SE,128,2.0,5.0,72,0.00,,,0.01,Wunderground v.1.15,2013-01-04 17:15:00,
2013-01-04 10:20:00,36.2,27.4,30.45,SE,128,3.0,3.0,70,0.00,,,0.01,Wunderground v.1.15,2013-01-04 17:20:00,
2013-01-04 10:30:00,36.9,27.7,30.45,SE,128,2.0,2.0,69,0.00,,,0.01,Wunderground v.1.15,2013-01-04 17:30:00,
2013-01-04 10:35:00,37.2,28.7,30.45,SE,127,2.0,2.0,71,0.00,,,0.01,Wunderground v.1.15,2013-01-04 17:35:00,
2013-01-04 10:40:00,37.2,28.3,30.45,ESE,102,2.0,4.0,70,0.00,,,0.01,Wunderground v.1.15,2013-01-04 17:40:00,
2013-01-04 10:45:00,37.2,28.0,30.44,East,101,4.0,4.0,69,0.00,,,0.01,Wunderground v.1.15,2013-01-04 17:45:00,
2013-01-04 10:50:00,37.2,28.0,30.44,ESE,104,4.0,4.0,69,0.00,,,0.01,Wunderground v.1.15,2013-01-04 17:50:00,
2013-01-04 10:55:00,36.9,28.0,30.44,ESE,105,3.0,4.0,70,0.00,,,0.01,Wunderground v.1.15,2013-01-04 17:55:00,
2013-01-04 11:00:00,37.5,28.6,30.44,ESE,103,3.0,4.0,70,0.00,,,0.01,Wunderground v.1.15,2013-01-04 18:00:00,
2013-01-04 11:05:00,37.2,27.2,30.44,ESE,103,3.0,4.0,67,0.00,,,0.01,Wunderground v.1.15,2013-01-04 18:05:00,
2013-01-04 11:15:00,36.2,27.0,30.44,ESE,103,3.0,4.0,69,0.00,,,0.01,Wunderground v.1.15,2013-01-04 18:15:00,
2013-01-04 11:20:00,36.0,27.2,30.44,ESE,103,3.0,3.0,70,0.00,,,0.01,Wunderground v.1.15,2013-01-04 18:20:00,
2013-01-04 11:25:00,36.8,27.9,30.44,ESE,103,2.0,5.0,70,0.00,,,0.01,Wunderground v.1.15,2013-01-04 18:25:00,
2013-01-04 11:30:00,37.3,27.3,30.43,ESE,103,1.0,1.0,67,0.00,,,0.01,Wunderground v.1.15,2013-01-04 18:30:00,
2013-01-04 11:35:00,37.9,27.9,30.43,ESE,103,1.0,1.0,67,0.00,,,0.01,Wunderground v.1.15,2013-01-04 18:35:00,
2013-01-04 11:40:00,38.5,27.4,30.43,ESE,103,1.0,2.0,64,0.00,,,0.01,Wunderground v.1.15,2013-01-04 18:40:00,
2013-01-04 11:45:00,38.6,27.8,30.43,ESE,104,2.0,2.0,65,0.00,,,0.01,Wunderground v.1.15,2013-01-04 18:45:00,
2013-01-04 11:55:00,38.3,26.8,30.42,East,101,2.0,6.0,63,0.00,,,0.01,Wunderground v.1.15,2013-01-04 18:55:00,
2013-01-04 12:00:00,38.8,28.0,30.42,East,101,2.0,4.0,65,0.00,,,0.01,Wunderground v.1.15,2013-01-04 19:00:00,
2013-01-04 12:05:00,38.6,27.1,30.42,East,101,2.0,4.0,63,0.00,,,0.01,Wunderground v.1.15,2013-01-04 19:05:00,
2013-01-04 12:15:00,38.2,26.7,30.41,East,101,1.0,2.0,63,0.00,,,0.01,Wunderground v.1.15,2013-01-04 19:15:00,
2013-01-04 12:20:00,38.5,27.4,30.41,East,101,1.0,1.0,64,0.00,,,0.01,Wunderground v.1.15,2013-01-04 19:20:00,
2013-01-04 12:25:00,39.5,27.5,30.41,ESE,102,1.0,1.0,62,0.00,,,0.01,Wunderground v.1.15,2013-01-04 19:25:00,
2013-01-04 12:30:00,40.1,27.7,30.41,ESE,103,1.0,1.0,61,0.00,,,0.01,Wunderground v.1.15,2013-01-04 19:30:00,
2013-01-04 12:35:00,40.6,27.8,30.40,ESE,103,1.0,1.0,60,0.00,,,0.01,Wunderground v.1.15,2013-01-04 19:35:00,
2013-01-04 12:40:00,41.1,27.9,30.40,ESE,109,1.0,1.0,59,0.00,,,0.01,Wunderground v.1.15,2013-01-04 19:40:00,
2013-01-04 12:45:00,41.3,28.0,30.40,ESE,109,2.0,4.0,59,0.00,,,0.01,Wunderground v.1.15,2013-01-04 19:45:00,
2013-01-04 12:50:00,40.5,27.3,30.40,East,100,3.0,6.0,59,0.00,,,0.01,Wunderground v.1.15,2013-01-04 19:50:00,
2013-01-04 12:55:00,40.2,27.0,30.39,East,92,5.0,6.0,59,0.00,,,0.01,Wunderground v.1.15,2013-01-04 19:55:00,
2013-01-04 13:00:00,40.6,27.8,30.39,NNE,30,4.0,4.0,60,0.00,,,0.01,Wunderground v.1.15,2013-01-04 20:00:00,
2013-01-04 13:05:00,40.8,27.2,30.39,East,88,4.0,5.0,58,0.00,,,0.01,Wunderground v.1.15,2013-01-04 20:05:00,
2013-01-04 13:15:00,41.3,28.4,30.39,ENE,62,4.0,6.0,60,0.00,,,0.01,Wunderground v.1.15,2013-01-04 20:15:00,
2013-01-04 13:20:00,41.1,27.4,30.38,East,96,5.0,5.0,58,0.00,,,0.01,Wunderground v.1.15,2013-01-04 20:20:00,
2013-01-04 13:25:00,41.2,27.5,30.38,ENE,78,5.0,6.0,58,0.00,,,0.01,Wunderground v.1.15,2013-01-04 20:25:00,
2013-01-04 13:30:00,41.1,27.4,30.38,East,92,5.0,5.0,58,0.00,,,0.01,Wunderground v.1.15,2013-01-04 20:30:00,
2013-01-04 13:40:00,41.5,28.2,30.38,ESE,105,4.0,4.0,59,0.00,,,0.01,Wunderground v.1.15,2013-01-04 20:40:00,
2013-01-04 13:45:00,41.8,27.7,30.38,ESE,104,5.0,5.0,57,0.00,,,0.01,Wunderground v.1.15,2013-01-04 20:45:00,
2013-01-04 13:50:00,41.6,27.5,30.38,ESE,107,5.0,5.0,57,0.00,,,0.01,Wunderground v.1.15,2013-01-04 20:50:00,
2013-01-04 13:55:00,41.6,27.9,30.37,ESE,107,5.0,5.0,58,0.00,,,0.01,Wunderground v.1.15,2013-01-04 20:55:00,
2013-01-04 14:00:00,41.8,28.5,30.37,ESE,113,3.0,5.0,59,0.00,,,0.01,Wunderground v.1.15,2013-01-04 21:00:00,
2013-01-04 14:05:00,41.8,27.7,30.37,ESE,117,3.0,5.0,57,0.00,,,0.01,Wunderground v.1.15,2013-01-04 21:05:00,
2013-01-04 14:15:00,42.3,28.1,30.37,ESE,119,3.0,5.0,57,0.00,,,0.01,Wunderground v.1.15,2013-01-04 21:15:00,
2013-01-04 14:20:00,42.3,28.6,30.37,East,99,4.0,6.0,58,0.00,,,0.01,Wunderground v.1.15,2013-01-04 21:20:00,
2013-01-04 14:25:00,42.3,28.1,30.36,ENE,77,5.0,6.0,57,0.00,,,0.01,Wunderground v.1.15,2013-01-04 21:25:00,
2013-01-04 14:30:00,42.3,28.1,30.36,ENE,73,4.0,4.0,57,0.00,,,0.01,Wunderground v.1.15,2013-01-04 21:30:00,
2013-01-04 14:35:00,42.2,27.6,30.36,ENE,72,4.0,4.0,56,0.00,,,0.01,Wunderground v.1.15,2013-01-04 21:35:00,
2013-01-04 14:45:00,42.5,27.9,30.36,ENE,77,3.0,5.0,56,0.00,,,0.01,Wunderground v.1.15,2013-01-04 21:45:00,
2013-01-04 14:50:00,42.8,28.6,30.36,ENE,77,3.0,4.0,57,0.00,,,0.01,Wunderground v.1.15,2013-01-04 21:50:00,
2013-01-04 14:55:00,42.9,27.8,30.36,ENE,59,3.0,4.0,55,0.00,,,0.01,Wunderground v.1.15,2013-01-04 21:55:00,
2013-01-04 15:00:00,42.9,27.8,30.36,East,79,3.0,3.0,55,0.00,,,0.01,Wunderground v.1.15,2013-01-04 22:00:00,
2013-01-04 15:05:00,42.8,27.7,30.36,East,79,3.0,3.0,55,0.00,,,0.01,Wunderground v.1.15,2013-01-04 22:05:00,
2013-01-04 15:15:00,42.8,28.2,30.36,East,79,2.0,3.0,56,0.00,,,0.01,Wunderground v.1.15,2013-01-04 22:15:00,
2013-01-04 15:20:00,42.8,27.7,30.36,East,89,3.0,3.0,55,0.00,,,0.01,Wunderground v.1.15,2013-01-04 22:20:00,
2013-01-04 15:25:00,42.6,27.5,30.36,East,93,4.0,5.0,55,0.00,,,0.01,Wunderground v.1.15,2013-01-04 22:25:00,
2013-01-04 15:30:00,42.5,27.9,30.37,East,93,4.0,4.0,56,0.00,,,0.01,Wunderground v.1.15,2013-01-04 22:30:00,
2013-01-04 15:35:00,42.8,28.2,30.36,East,94,3.0,4.0,56,0.00,,,0.01,Wunderground v.1.15,2013-01-04 22:35:00,
2013-01-04 15:40:00,43.1,28.0,30.36,East,98,4.0,4.0,55,0.00,,,0.01,Wunderground v.1.15,2013-01-04 22:40:00,
2013-01-04 15:50:00,43.1,27.6,30.37,East,97,2.0,2.0,54,0.00,,,0.01,Wunderground v.1.15,2013-01-04 22:50:00,
2013-01-04 15:55:00,42.9,27.4,30.37,East,97,3.0,3.0,54,0.00,,,0.01,Wunderground v.1.15,2013-01-04 22:55:00,
2013-01-04 16:00:00,42.9,27.8,30.37,East,97,3.0,4.0,55,0.00,,,0.01,Wunderground v.1.15,2013-01-04 23:00:00,
2013-01-04 16:05:00,42.9,27.8,30.37,East,98,3.0,4.0,55,0.00,,,0.01,Wunderground v.1.15,2013-01-04 23:05:00,
2013-01-04 16:15:00,42.8,27.3,30.37,East,98,3.0,3.0,54,0.00,,,0.01,Wunderground v.1.15,2013-01-04 23:15:00,
2013-01-04 16:20:00,42.6,27.5,30.37,East,98,3.0,3.0,55,0.00,,,0.01,Wunderground v.1.15,2013-01-04 23:20:00,
2013-01-04 16:25:00,42.6,27.5,30.37,East,98,2.0,4.0,55,0.00,,,0.01,Wunderground v.1.15,2013-01-04 23:25:00,
2013-01-04 16:30:00,42.5,27.5,30.37,East,98,2.0,2.0,55,0.00,,,0.01,Wunderground v.1.15,2013-01-04 23:30:00,
2013-01-04 16:35:00,42.3,27.3,30.37,East,98,3.0,3.0,55,0.00,,,0.01,Wunderground v.1.15,2013-01-04 23:35:00,
2013-01-04 16:40:00,42.2,27.2,30.37,East,98,1.0,1.0,55,0.00,,,0.01,Wunderground v.1.15,2013-01-04 23:40:00,
2013-01-04 16:45:00,42.5,27.5,30.37,East,98,0.0,1.0,55,0.00,,,0.01,Wunderground v.1.15,2013-01-04 23:45:00,
2013-01-04 16:55:00,42.1,28.4,30.37,East,98,1.0,1.0,58,0.00,,,0.01,Wunderground v.1.15,2013-01-04 23:55:00,
2013-01-04 17:00:00,40.8,28.8,30.38,ESE,120,2.0,4.0,62,0.00,,,0.01,Wunderground v.1.15,2013-01-05 00:00:00,
2013-01-04 17:05:00,39.8,29.0,30.37,ESE,120,4.0,5.0,65,0.00,,,0.01,Wunderground v.1.15,2013-01-05 00:05:00,
2013-01-04 17:15:00,38.6,28.2,30.38,ESE,121,4.0,4.0,66,0.00,,,0.01,Wunderground v.1.15,2013-01-05 00:15:00,
2013-01-04 17:20:00,38.3,28.3,30.38,ESE,121,3.0,3.0,67,0.00,,,0.01,Wunderground v.1.15,2013-01-05 00:20:00,
2013-01-04 17:30:00,37.6,28.0,30.38,ESE,121,3.0,6.0,68,0.00,,,0.01,Wunderground v.1.15,2013-01-05 00:30:00,
2013-01-04 17:35:00,37.6,28.0,30.38,ESE,122,4.0,6.0,68,0.00,,,0.01,Wunderground v.1.15,2013-01-05 00:35:00,
2013-01-04 17:40:00,37.6,28.0,30.38,ESE,123,4.0,5.0,68,0.00,,,0.01,Wunderground v.1.15,2013-01-05 00:40:00,
2013-01-04 17:45:00,37.5,27.9,30.38,ESE,123,4.0,5.0,68,0.00,,,0.01,Wunderground v.1.15,2013-01-05 00:45:00,
2013-01-04 17:50:00,37.5,27.9,30.38,SE,124,3.0,3.0,68,0.00,,,0.01,Wunderground v.1.15,2013-01-05 00:50:00,
2013-01-04 18:00:00,37.0,27.8,30.39,SE,124,2.0,2.0,69,0.00,,,0.01,Wunderground v.1.15,2013-01-05 01:00:00,
2013-01-04 18:05:00,36.9,27.7,30.39,SE,124,2.0,4.0,69,0.00,,,0.01,Wunderground v.1.15,2013-01-05 01:05:00,
2013-01-04 18:15:00,36.6,27.4,30.39,SE,124,3.0,4.0,69,0.00,,,0.01,Wunderground v.1.15,2013-01-05 01:15:00,
2013-01-04 18:20:00,36.6,27.4,30.40,SE,124,3.0,3.0,69,0.00,,,0.01,Wunderground v.1.15,2013-01-05 01:20:00,
2013-01-04 18:25:00,36.6,27.7,30.40,SE,124,2.0,3.0,70,0.00,,,0.01,Wunderground v.1.15,2013-01-05 01:25:00,
2013-01-04 18:35:00,36.5,27.6,30.40,SE,124,3.0,3.0,70,0.00,,,0.01,Wunderground v.1.15,2013-01-05 01:35:00,
2013-01-04 18:40:00,36.2,27.4,30.40,SE,124,3.0,4.0,70,0.00,,,0.01,Wunderground v.1.15,2013-01-05 01:40:00,
2013-01-04 18:45:00,35.9,27.4,30.40,SE,124,3.0,4.0,71,0.00,,,0.01,Wunderground v.1.15,2013-01-05 01:45:00,
2013-01-04 18:50:00,35.6,27.1,30.40,SE,124,3.0,3.0,71,0.00,,,0.01,Wunderground v.1.15,2013-01-05 01:50:00,
2013-01-04 18:55:00,35.3,27.2,30.40,SE,124,3.0,4.0,72,0.00,,,0.01,Wunderground v.1.15,2013-01-05 01:55:00,
2013-01-04 19:10:00,34.9,27.1,30.40,SE,124,2.0,2.0,73,0.00,,,0.01,Wunderground v.1.15,2013-01-05 02:10:00,
2013-01-04 19:20:00,34.9,27.5,30.41,SE,124,2.0,2.0,74,0.00,,,0.01,Wunderground v.1.15,2013-01-05 02:20:00,
2013-01-04 19:25:00,34.7,27.3,30.41,SE,124,2.0,2.0,74,0.00,,,0.01,Wunderground v.1.15,2013-01-05 02:25:00,
2013-01-04 19:30:00,34.6,27.2,30.41,SE,124,2.0,4.0,74,0.00,,,0.01,Wunderground v.1.15,2013-01-05 02:30:00,
2013-01-04 19:35:00,34.6,27.2,30.41,SE,124,3.0,4.0,74,0.00,,,0.01,Wunderground v.1.15,2013-01-05 02:35:00,
2013-01-04 19:45:00,34.3,26.9,30.41,SE,124,3.0,5.0,74,0.00,,,0.01,Wunderground v.1.15,2013-01-05 02:45:00,
2013-01-04 19:50:00,34.3,27.2,30.41,SE,124,3.0,4.0,75,0.00,,,0.01,Wunderground v.1.15,2013-01-05 02:50:00,
2013-01-04 19:55:00,34.1,27.0,30.41,SE,125,3.0,4.0,75,0.00,,,0.01,Wunderground v.1.15,2013-01-05 02:55:00,
2013-01-04 20:00:00,34.1,27.0,30.41,SE,125,3.0,4.0,75,0.00,,,0.01,Wunderground v.1.15,2013-01-05 03:00:00,
2013-01-04 20:05:00,34.0,26.9,30.41,SE,125,4.0,4.0,75,0.00,,,0.01,Wunderground v.1.15,2013-01-05 03:05:00,
2013-01-04 20:15:00,34.1,27.0,30.41,SE,125,3.0,6.0,75,0.00,,,0.01,Wunderground v.1.15,2013-01-05 03:15:00,
2013-01-04 20:20:00,34.1,26.7,30.42,SE,125,3.0,3.0,74,0.00,,,0.01,Wunderground v.1.15,2013-01-05 03:20:00,
2013-01-04 20:25:00,34.1,27.0,30.42,SE,126,3.0,4.0,75,0.00,,,0.01,Wunderground v.1.15,2013-01-05 03:25:00,
2013-01-04 20:35:00,34.1,26.7,30.42,SE,126,3.0,3.0,74,0.00,,,0.01,Wunderground v.1.15,2013-01-05 03:35:00,
2013-01-04 20:40:00,34.3,26.5,30.42,SE,126,3.0,4.0,73,0.00,,,0.01,Wunderground v.1.15,2013-01-05 03:40:00,
2013-01-04 20:45:00,34.3,26.5,30.42,SE,126,4.0,4.0,73,0.00,,,0.01,Wunderground v.1.15,2013-01-05 03:45:00,
2013-01-04 20:50:00,34.3,26.5,30.42,SE,126,3.0,3.0,73,0.00,,,0.01,Wunderground v.1.15,2013-01-05 03:50:00,
2013-01-04 20:55:00,34.3,26.5,30.42,SE,126,3.0,4.0,73,0.00,,,0.01,Wunderground v.1.15,2013-01-05 03:55:00,
2013-01-04 21:00:00,34.0,26.3,30.42,SE,126,3.0,5.0,73,0.00,,,0.01,Wunderground v.1.15,2013-01-05 04:00:00,
2013-01-04 21:05:00,33.7,26.3,30.42,SE,126,3.0,5.0,74,0.00,,,0.01,Wunderground v.1.15,2013-01-05 04:05:00,
2013-01-04 21:15:00,33.5,26.1,30.42,SE,127,3.0,5.0,74,0.00,,,0.01,Wunderground v.1.15,2013-01-05 04:15:00,
2013-01-04 21:20:00,33.5,26.1,30.42,SE,127,3.0,4.0,74,0.00,,,0.01,Wunderground v.1.15,2013-01-05 04:20:00,
2013-01-04 21:25:00,33.7,26.3,30.43,SE,127,3.0,4.0,74,0.00,,,0.01,Wunderground v.1.15,2013-01-05 04:25:00,
2013-01-04 21:30:00,33.8,26.1,30.43,SE,127,3.0,3.0,73,0.00,,,0.01,Wunderground v.1.15,2013-01-05 04:30:00,
2013-01-04 21:35:00,33.7,26.0,30.43,SE,127,3.0,3.0,73,0.00,,,0.01,Wunderground v.1.15,2013-01-05 04:35:00,
2013-01-04 21:40:00,33.7,26.0,30.43,SE,127,3.0,3.0,73,0.00,,,0.01,Wunderground v.1.15,2013-01-05 04:40:00,
2013-01-04 21:50:00,33.4,25.7,30.43,SE,127,4.0,4.0,73,0.00,,,0.01,Wunderground v.1.15,2013-01-05 04:50:00,
2013-01-04 21:55:00,33.2,25.5,30.43,SE,127,3.0,4.0,73,0.00,,,0.01,Wunderground v.1.15,2013-01-05 04:55:00,
2013-01-04 22:00:00,32.9,25.2,30.43,SE,128,3.0,4.0,73,0.00,,,0.01,Wunderground v.1.15,2013-01-05 05:00:00,
2013-01-04 22:05:00,32.8,25.4,30.43,SE,134,4.0,5.0,74,0.00,,,0.01,Wunderground v.1.15,2013-01-05 05:05:00,
2013-01-04 22:10:00,32.9,25.2,30.43,SE,134,4.0,4.0,73,0.00,,,0.01,Wunderground v.1.15,2013-01-05 05:10:00,
2013-01-04 22:15:00,32.9,25.5,30.44,SE,134,3.0,4.0,74,0.00,,,0.01,Wunderground v.1.15,2013-01-05 05:15:00,
2013-01-04 22:20:00,33.1,25.7,30.43,SE,134,3.0,4.0,74,0.00,,,0.01,Wunderground v.1.15,2013-01-05 05:20:00,
2013-01-04 22:30:00,33.2,25.5,30.44,SE,134,2.0,2.0,73,0.00,,,0.01,Wunderground v.1.15,2013-01-05 05:30:00,
2013-01-04 22:35:00,32.5,25.1,30.43,SE,134,2.0,4.0,74,0.00,,,0.01,Wunderground v.1.15,2013-01-05 05:35:00,
2013-01-04 22:40:00,31.8,24.8,30.43,SE,134,3.0,4.0,75,0.00,,,0.01,Wunderground v.1.15,2013-01-05 05:40:00,
2013-01-04 22:45:00,30.7,24.0,30.44,SE,134,4.0,5.0,76,0.00,,,0.01,Wunderground v.1.15,2013-01-05 05:45:00,
2013-01-04 22:50:00,30.1,24.1,30.44,SE,134,5.0,5.0,78,0.00,,,0.01,Wunderground v.1.15,2013-01-05 05:50:00,
2013-01-04 23:00:00,30.4,25.0,30.44,SE,134,5.0,5.0,80,0.00,,,0.01,Wunderground v.1.15,2013-01-05 06:00:00,
2013-01-04 23:05:00,30.6,24.9,30.44,SE,134,5.0,5.0,79,0.00,,,0.01,Wunderground v.1.15,2013-01-05 06:05:00,